SL-14 DEB, 45279

Orbit data source: Space-Track

SL-14 DEB, 45279 is space debris in LEO originally from a launch on Thu, 15 Aug 1991 UTC launched from the Plesetsk Missile And Space Complex (PKMTR). Debris objects in space refer to the collection of defunct objects orbiting the Earth. Examples of debris include non-operational satellites, rocket bodies, and fragments generated from explosions, collisions, or faulty payload assembly.

Loading next visibility...
Identifier
45279, 1991-056R
Orbit
LEO
Country
Flag of CISCIS
Related business
Manufacturer
Unknown
Mission
Spacecraft
Bus & Motor
Unknown
Mass
Unknown
Launch date (UTC)
1991-08-15 (34 years ago)
Launch vehicle
Unknown
Launch site
Plesetsk Missile And Space Complex (PKMTR)
Object type
Payload
Rocket body
Debris
Shape & HBR
Unknown shape, 0.1 m
Radar Cross Section
Small (<0.1 m²)

Expand to show TLE details & history
Last TLE update: 8 hours ago

TLE from 8 hours ago
0 SL-14 DEB
1 45279U 91056R   26035.68995573 -.00000500  00000-0 -16293-2 0  9996
2 45279  82.5532 274.4322 0080972 356.5766   3.4783 13.01952876283394
Epoch: 2026-02-04T16:33Z
TLE epoch observation values (Epoch: 2026-02-04T16:33:32.175Z)
Latitude
-0.00001°
Longitude
-108.80479°
Altitude
1,195.536 km
Speed
7.285 km/s
True Right ascension
18h 17m 43s
True Declination
0° 00' 00"
Sunlit
Object was in daylight at epoch
Visualization orbit readout
Latitude
Unknown
Longitude
Unknown
Altitude
Unknown
Speed
Unknown
Apparent Right ascension
Unknown
Apparent Declination
Unknown
Sunlit
N/A
Visualization observer readout
Local Sidereal Time
02:18:37
Azimuth
Unknown
Elevation
Unknown
Doppler factor
Unknown
Orbital elements
Apogee altitude
1,313.494 km
Perigee altitude
1,189.933 km
Semi-major axis
7,629.851 km
Eccentricity
0.0081
Inclination
82.5532°
RAAN
274.4322°
Arg. of periapsis
356.5766°
True anomaly
3.53517°
Mean anomaly
3.4783°
Eccentric anomaly
3.50668°
Mean motion
3.25664 °/min
Orbital period
110.54 mins
BSTAR
-0.0016293
Loading maneuver chart data...
Computing Atmospheric mass density...
Loading historical data...
Loading historical data...
Loading historical data...
Loading historical data...
Loading historical data...
Loading historical data...
Loading historical data...

Documentation

Showing up to 5 results
|